Wind_Speed
20 20 21 23 23 25 26 28 28 27 27 27 27 27 26 26 25 24 24 22 21 20 19 17 15 15 14 14 14 14 13 13 13 13 13 13 13 13 14 14 13 12 12
19 20 20 21 22 23 24 25 26 26 26 27 27 27 27 27 26 26 25 24 23 22 21 20 18 17 16 16 15 15 15 15 14 14 14 15 14 14 14 14 14 13 13
18 19 20 20 21 22 23 24 25 26 26 27 26 26 27 28 28 28 27 26 25 23 22 22 20 19 17 17 17 16 16 16 15 15 15 15 15 15 14 14 14 14 13
17 17 18 20 20 21 22 24 24 26 26 26 27 26 27 28 29 29 29 28 27 25 24 24 23 21 20 19 18 18 18 17 17 16 16 16 16 16 15 15 14 14 14
16 16 17 18 19 19 21 22 24 25 26 26 26 26 27 29 29 30 30 30 28 27 26 25 24 23 22 21 20 19 19 19 18 18 17 17 17 17 16 16 15 15 14
15 15 15 16 16 17 18 20 22 24 24 25 26 27 28 30 29 29 30 31 30 29 28 27 25 24 24 24 23 22 21 20 19 19 19 18 18 18 18 17 16 16 15
13 13 13 13 13 14 16 17 19 21 23 24 25 26 27 29 29 29 30 31 31 31 30 29 27 26 25 25 25 24 23 22 21 21 20 19 19 19 19 18 18 17 16
13 12 11 11 11 12 13 15 17 19 21 23 24 26 27 28 30 29 30 31 32 32 31 30 29 28 27 27 26 26 25 24 23 22 21 21 20 20 19 19 19 18 18
12 10 10 10 9 10 10 12 15 17 19 21 23 25 27 28 28 29 31 31 32 33 33 32 31 30 30 29 28 27 26 26 25 24 24 23 22 21 21 20 20 19 19
12 10 9 9 8 8 8 10 11 14 16 18 21 23 25 26 28 28 30 31 32 33 33 33 32 31 31 30 30 29 29 28 28 27 26 25 24 23 23 22 22 21 21
12 11 10 8 8 7 7 7 9 11 13 15 18 21 22 25 26 27 27 29 31 32 33 33 33 32 32 32 31 30 30 30 29 29 28 26 26 25 24 24 24 23 23
13 11 10 9 8 7 5 5 7 9 11 13 15 18 20 22 24 26 26 28 30 31 32 33 34 33 33 33 32 32 31 31 30 30 30 29 28 27 27 26 25 25 25
14 12 10 9 8 6 5 4 5 7 10 12 13 15 17 19 21 23 24 27 29 30 31 32 34 33 34 34 33 33 33 32 31 31 31 31 30 29 28 28 27 27 27
15 13 12 10 9 7 5 4 3 5 7 10 12 14 15 16 17 20 22 23 25 27 29 31 32 33 33 35 34 33 34 34 33 33 33 33 32 31 30 30 29 29 29
16 15 13 11 9 8 6 4 3 3 5 7 9 12 14 15 16 17 18 20 21 23 26 28 30 30 31 33 33 34 33 33 33 33 33 33 34 33 32 32 32 32 31
17 15 14 12 10 8 6 4 2 3 4 6 7 10 11 13 15 15 17 18 19 21 23 25 28 29 29 30 31 33 33 33 33 33 33 33 34 34 34 34 33 32 32
17 16 15 14 12 10 7 5 3 2 2 4 6 7 9 10 13 14 15 17 18 19 21 24 25 27 29 30 30 31 32 33 34 34 34 33 33 34 34 34 35 35 34
17 16 15 14 13 11 8 6 4 3 2 2 4 6 7 9 10 12 14 16 17 19 20 21 23 24 27 28 29 30 31 32 32 33 34 34 34 34 35 35 36 36 36
16 16 15 14 13 12 10 7 5 4 3 2 3 4 6 7 9 10 12 14 16 18 20 21 22 24 25 26 27 29 30 31 32 32 33 34 34 34 34 35 35 36 36
16 15 14 14 13 12 11 9 7 5 3 3 3 4 5 6 8 9 12 13 15 17 19 20 22 23 24 25 26 27 28 30 30 32 33 34 35 35 34 34 34 35 35
16 15 14 14 13 12 11 9 8 7 5 4 3 4 4 5 6 8 9 11 13 14 16 18 19 21 23 24 25 25 26 28 29 30 32 34 34 35 35 34 34 35 35
16 15 14 13 13 12 11 10 9 7 6 5 4 4 4 4 5 6 7 9 10 12 14 15 17 18 19 20 22 23 25 26 26 28 30 32 33 34 35 35 35 35 35
16 15 14 13 13 12 11 11 10 9 7 6 6 6 5 5 6 7 8 9 10 11 13 15 17 17 19 20 21 22 22 24 25 26 28 28 29 31 32 34 35 35 35
15 14 14 13 12 12 11 11 10 10 9 8 8 7 7 7 7 8 9 10 10 11 13 14 16 18 19 20 21 22 23 24 25 26 27 27 28 28 30 31 33 34 34
15 14 14 13 13 12 12 11 11 11 10 9 9 9 9 9 9 9 9 10 11 12 13 14 15 17 19 20 21 21 23 24 25 26 26 27 28 29 30 32 33 33 34
15 15 14 14 13 13 13 12 12 11 11 11 10 10 10 10 10 10 10 11 11 12 13 14 15 17 18 19 20 22 22 23 24 26 26 26 27 29 30 32 33 34 34
Wind_Direction
281 277 272 267 261 257 254 251 249 244 241 237 236 235 233 228 224 222 219 218 218 216 214 213 214 212 209 204 203 202 201 201 201 201 201 202 199 198 197 197 195 196 195
285 279 273 269 264 258 254 250 248 245 242 237 235 233 232 228 224 222 219 218 217 216 216 216 214 213 211 208 205 205 205 204 204 204 204 205 205 206 206 205 204 205 206
289 281 274 270 266 261 254 250 245 244 242 237 233 232 229 226 224 222 220 218 219 219 219 216 215 213 213 211 209 208 207 206 206 207 207 208 210 210 211 211 212 212 215
293 285 277 272 268 264 256 249 244 243 240 237 233 229 227 226 224 222 222 220 220 219 220 218 216 216 215 213 212 211 211 210 210 210 211 212 213 213 214 216 218 219 220
300 293 285 276 269 265 257 249 244 242 239 237 233 229 227 225 224 222 223 221 220 221 222 220 219 218 217 215 214 213 213 213 214 214 213 214 215 215 217 220 222 223 226
305 297 292 283 273 266 259 251 244 242 239 236 232 229 227 226 224 223 223 222 221 222 221 219 219 220 220 218 217 216 215 216 216 216 216 217 217 218 221 224 226 228 232
313 304 297 289 279 268 261 253 244 240 237 234 231 229 228 226 224 223 222 221 220 221 221 221 221 221 221 221 220 219 219 218 218 218 219 219 220 222 224 227 230 232 235
322 315 307 298 286 273 263 255 247 241 237 234 232 230 227 226 225 224 223 223 221 220 220 221 222 223 223 223 222 221 221 220 220 222 222 223 225 226 227 229 232 235 236
334 327 319 310 297 282 269 259 249 241 235 232 231 230 227 225 223 224 225 224 223 222 222 222 223 225 224 224 224 224 224 224 224 224 225 226 229 229 230 232 234 236 238
345 340 331 322 312 296 277 262 249 238 233 231 229 228 227 226 222 223 224 226 225 224 224 225 225 226 226 225 226 226 226 226 227 227 228 230 231 234 234 235 236 238 241
354 348 342 334 324 309 289 265 248 237 231 228 227 225 224 224 224 222 223 225 225 225 225 225 226 228 228 228 228 227 227 228 229 229 231 232 234 237 238 239 239 240 244
357 351 346 343 334 320 301 275 249 235 229 227 223 222 223 226 225 224 226 226 225 226 228 227 228 229 229 229 230 229 229 229 230 231 232 234 237 238 240 242 242 244 246
2 357 351 348 343 331 314 292 254 234 228 226 224 222 222 225 229 228 229 229 227 228 229 229 229 230 231 230 231 231 230 231 232 233 235 236 238 239 241 243 245 247 247
7 4 0 358 356 350 335 315 272 238 228 229 228 227 226 225 231 231 231 231 231 230 231 230 231 232 232 232 232 233 233 232 233 234 237 239 240 240 242 244 246 249 251
10 9 8 7 6 0 348 333 296 257 237 231 231 231 229 230 233 232 232 232 231 230 232 232 232 232 232 233 233 234 234 235 236 236 238 241 242 242 243 245 247 249 252
12 14 13 13 12 8 0 350 312 276 250 236 230 231 235 237 235 235 236 236 236 235 235 234 234 235 234 234 234 235 237 238 240 241 242 242 243 244 246 247 248 250 252
13 14 15 18 18 16 12 10 1 320 262 240 233 235 238 238 237 236 235 235 236 236 235 234 235 237 235 235 236 236 238 240 242 243 245 245 246 247 248 249 250 251 252
13 15 16 18 19 18 17 17 17 5 317 256 241 241 241 241 238 235 235 235 236 237 236 234 234 235 236 238 238 238 239 241 243 244 246 246 247 248 249 251 252 252 253
12 15 16 17 18 19 19 19 18 11 0 324 267 256 250 250 246 241 239 240 240 238 238 237 237 238 240 239 238 239 240 242 243 245 246 247 248 248 250 251 253 252 252
11 12 14 15 15 17 18 20 18 8 352 343 319 286 265 259 253 247 244 243 243 242 240 240 240 241 243 242 240 241 242 244 245 246 247 248 250 250 251 251 252 253 253
7 8 10 11 11 12 13 11 12 8 358 351 341 317 288 274 260 250 248 246 245 244 242 243 243 243 245 244 243 244 245 246 247 248 249 249 251 251 252 252 253 255 256
4 5 5 6 7 7 8 7 3 0 353 344 337 330 314 295 272 259 253 250 248 247 246 246 246 246 245 246 244 247 248 248 249 249 251 252 253 253 253 253 254 255 256
359 1 2 3 3 4 3 2 359 355 348 337 326 318 313 303 288 274 267 262 257 252 249 249 249 249 248 249 249 249 250 251 252 253 254 256 257 256 255 255 255 256 256
352 354 355 356 356 357 356 355 354 350 345 337 329 320 312 303 296 284 272 265 262 258 254 252 252 251 253 253 253 254 254 253 255 255 257 259 259 259 259 258 258 258 259
345 346 347 347 348 348 348 347 345 342 338 333 327 318 309 303 298 293 283 274 267 263 259 257 257 256 257 256 255 258 258 257 258 258 258 259 261 260 261 261 261 261 261
337 338 339 339 339 340 341 340 338 334 332 327 322 316 307 300 295 290 285 280 274 270 268 263 260 260 261 261 261 261 260 259 260 260 262 263 263 263 263 263 263 262 261
Height
5811 5810 5810 5810 5810 5811 5813 5814 5816 5819 5822 5825 5828 5831 5834 5837 5840 5843 5846 5849 5852 5855 5857 5859 5861 5863 5864 5866 5867 5869 5871 5873 5875 5877 5879 5881 5882 5884 5885 5887 5888 5890 5892
5806 5805 5805 5805 5805 5805 5807 5808 5810 5813 5816 5819 5822 5826 5829 5832 5835 5839 5842 5845 5848 5851 5854 5856 5858 5860 5862 5864 5866 5867 5869 5872 5874 5876 5878 5880 5881 5883 5885 5886 5888 5889 5891
5801 5800 5799 5799 5799 5799 5800 5802 5804 5807 5810 5813 5817 5820 5823 5826 5830 5834 5837 5841 5844 5847 5850 5852 5855 5857 5859 5861 5863 5865 5867 5870 5872 5874 5876 5878 5880 5882 5883 5885 5887 5888 5890
5796 5795 5794 5793 5793 5793 5794 5796 5798 5801 5804 5807 5811 5814 5817 5821 5824 5828 5832 5836 5839 5843 5846 5849 5851 5854 5856 5859 5861 5863 5865 5868 5870 5872 5874 5876 5878 5880 5882 5883 5885 5887 5888
5792 5790 5789 5788 5788 5788 5789 5790 5792 5795 5798 5801 5805 5808 5811 5815 5818 5823 5827 5831 5834 5838 5841 5844 5847 5850 5853 5856 5858 5860 5863 5865 5867 5869 5872 5874 5876 5878 5880 5881 5883 5885 5886
5788 5786 5784 5783 5782 5783 5783 5785 5786 5789 5792 5795 5799 5802 5805 5809 5813 5817 5821 5825 5829 5833 5837 5840 5843 5846 5849 5852 5855 5857 5860 5862 5865 5867 5869 5871 5873 5875 5877 5879 5881 5882 5884
5785 5782 5780 5779 5778 5778 5778 5779 5781 5784 5786 5789 5793 5796 5799 5803 5807 5811 5815 5820 5824 5827 5831 5835 5838 5842 5845 5848 5851 5854 5856 5859 5861 5864 5866 5868 5870 5872 5874 5876 5878 5879 5881
5782 5779 5777 5776 5775 5774 5774 5775 5776 5779 5781 5784 5787 5790 5794 5798 5801 5805 5809 5814 5818 5822 5826 5830 5833 5837 5840 5843 5846 5849 5852 5855 5858 5860 5863 5865 5867 5869 5871 5873 5875 5876 5878
5779 5777 5775 5773 5772 5771 5771 5771 5772 5774 5777 5779 5782 5785 5789 5792 5796 5800 5804 5808 5812 5816 5820 5824 5828 5831 5835 5838 5841 5845 5848 5851 5854 5856 5859 5861 5863 5865 5868 5869 5871 5873 5874
5778 5775 5773 5771 5769 5768 5768 5768 5769 5770 5772 5775 5777 5780 5784 5787 5791 5795 5799 5803 5807 5810 5814 5818 5822 5826 5829 5833 5836 5840 5843 5846 5849 5852 5854 5857 5859 5861 5863 5865 5867 5869 5870
5777 5774 5771 5769 5768 5766 5766 5765 5766 5767 5769 5771 5773 5776 5779 5782 5786 5790 5793 5797 5801 5805 5809 5812 5816 5820 5823 5827 5830 5834 5837 5841 5844 5847 5849 5852 5854 5857 5859 5860 5862 5864 5866
5776 5773 5770 5768 5766 5765 5764 5763 5764 5764 5766 5768 5770 5772 5775 5778 5781 5785 5788 5791 5795 5799 5802 5806 5810 5813 5817 5820 5824 5828 5831 5835 5838 5841 5844 5847 5849 5851 5854 5855 5857 5859 5861
5776 5773 5770 5767 5765 5763 5762 5762 5762 5762 5764 5766 5767 5770 5772 5775 5777 5780 5783 5786 5789 5793 5796 5800 5803 5807 5810 5814 5818 5821 5825 5829 5832 5835 5838 5841 5843 5845 5848 5850 5852 5853 5855
5776 5773 5770 5767 5764 5763 5762 5761 5761 5761 5762 5764 5765 5767 5769 5771 5774 5776 5779 5781 5784 5787 5790 5794 5797 5800 5804 5807 5811 5815 5819 5822 5826 5829 5832 5835 5837 5839 5841 5844 5846 5847 5849
5777 5773 5770 5767 5764 5762 5761 5760 5760 5760 5761 5762 5763 5765 5767 5768 5770 5772 5774 5777 5780 5782 5785 5788 5791 5794 5797 5801 5805 5808 5812 5815 5819 5822 5825 5828 5830 5833 5835 5837 5839 5840 5842
5777 5774 5770 5767 5764 5762 5761 5760 5759 5759 5760 5760 5762 5763 5764 5765 5767 5769 5771 5773 5775 5777 5779 5782 5785 5788 5792 5795 5798 5802 5806 5809 5812 5815 5818 5820 5823 5825 5828 5830 5832 5833 5835
5778 5775 5771 5768 5765 5763 5761 5760 5759 5759 5759 5759 5760 5761 5762 5763 5764 5765 5767 5769 5770 5772 5774 5776 5779 5782 5786 5789 5793 5796 5799 5802 5805 5808 5810 5813 5815 5818 5820 5822 5824 5826 5827
5779 5776 5772 5769 5766 5764 5762 5760 5759 5759 5759 5759 5759 5760 5760 5761 5761 5762 5763 5765 5766 5768 5770 5772 5774 5777 5780 5783 5786 5789 5792 5795 5798 5800 5803 5805 5807 5810 5812 5813 5815 5817 5819
5780 5777 5773 5770 5768 5765 5763 5761 5760 5759 5759 5759 5759 5759 5759 5759 5759 5759 5760 5761 5763 5764 5766 5768 5770 5772 5774 5777 5780 5783 5785 5788 5791 5793 5795 5797 5799 5801 5803 5805 5807 5808 5810
5781 5778 5775 5771 5769 5766 5764 5762 5761 5760 5759 5758 5758 5758 5757 5757 5757 5757 5758 5758 5759 5760 5762 5763 5765 5767 5769 5771 5773 5776 5779 5781 5783 5786 5788 5790 5791 5793 5795 5796 5798 5799 5801
5782 5778 5775 5772 5770 5767 5765 5763 5761 5760 5759 5758 5757 5757 5756 5755 5755 5755 5755 5756 5756 5757 5758 5759 5760 5762 5764 5766 5768 5770 5772 5774 5776 5778 5780 5782 5783 5785 5786 5788 5789 5791 5792
5782 5779 5776 5773 5770 5768 5766 5764 5762 5760 5759 5757 5757 5756 5755 5754 5754 5753 5753 5753 5753 5754 5755 5755 5756 5758 5759 5761 5763 5764 5766 5768 5770 5772 5773 5774 5775 5776 5778 5779 5780 5782 5783
5783 5779 5776 5774 5771 5769 5766 5764 5762 5760 5758 5757 5756 5755 5754 5753 5752 5751 5751 5750 5750 5751 5751 5752 5753 5753 5755 5756 5758 5759 5760 5761 5763 5764 5765 5766 5767 5768 5769 5770 5772 5773 5774
5782 5779 5776 5774 5771 5769 5766 5764 5762 5760 5758 5756 5755 5753 5752 5751 5750 5749 5749 5748 5748 5748 5748 5748 5749 5750 5750 5751 5753 5754 5754 5755 5756 5757 5758 5759 5759 5760 5761 5761 5762 5763 5764
5781 5779 5776 5773 5770 5768 5766 5763 5761 5759 5757 5755 5753 5751 5750 5749 5748 5747 5746 5745 5745 5745 5745 5745 5745 5745 5746 5746 5747 5748 5749 5749 5750 5750 5751 5752 5752 5752 5752 5753 5753 5754 5755
5780 5777 5774 5772 5769 5767 5764 5762 5760 5757 5755 5753 5751 5749 5748 5746 5745 5744 5743 5742 5742 5741 5741 5741 5741 5741 5741 5741 5742 5742 5742 5743 5743 5743 5743 5744 5744 5744 5744 5744 5745 5745 5746